Showing default

HULIANWANG DIGUI-07, 62329

Orbit data source: Space-Track

HULIANWANG DIGUI-07, 62329 is a payload satellite owned by Zhongguo Xingwang (CN) in LEO that was launched on Mon, 16 Dec 2024 UTC via a CHANG ZHENG 5B/YZ-2 launch vehicle from the Wenchang Satellite Launch Center (WSC). Payload-class satellites include a variety of spacecraft equipped with specific instruments for various scientific and technological missions. These include communications satellites like Starlink; space stations such as the ISS; scientific satellites like the Hubble; Earth observation satellites from companies like Planet Labs, Umbra, and HawkEye 360; GPS; miniature CubeSats for education and research; and military/defense satellites.

Loading next visibility...
Identifier
62329, 2024-240G
Orbit
LEO
Country
Flag of CNCN / PRC
Related business
Manufacturer
CAST?
Mission
Operational Civil Communications
Bus & Motor
XINGWANG CL, Unknown motor
Mass
~800 kg wet, ~800 kg dry
Launch date (UTC)
2024-12-16 (1 year ago)
Launch vehicle
CHANG ZHENG 5B/YZ-2
Launch site
Wenchang Satellite Launch Center (WSC)
Object type
Payload
Rocket body
Debris
Shape & HBR
Box + 2 Pan, 5.0 m
Radar Cross Section
5.935 m², Large (>1 m²)

Expand to show TLE details & history
Last TLE update: 6 hours ago

TLE from 6 hours ago
0 HULIANWANG DIGUI-07
1 62329U 24240G   26061.80773073  .00000046  00000-0  72640-4 0  9997
2 62329  86.4977  18.8604 0001992  88.1061 272.0301 13.24420844 58568
Epoch: 2026-03-02T19:23Z
TLE epoch observation values (Epoch: 2026-03-02T19:23:07.935Z)
Latitude
-0.00002°
Longitude
-72.5185°
Altitude
1,170.722 km
Speed
7.268 km/s
True Right ascension
01h 15m 26s
True Declination
0° 00' 00"
Sunlit
Object was in daylight at epoch
Visualization orbit readout
Latitude
Unknown
Longitude
Unknown
Altitude
Unknown
Speed
Unknown
Apparent Right ascension
Unknown
Apparent Declination
Unknown
Sunlit
N/A
Visualization observer readout
Local Sidereal Time
04:48:31
Azimuth
Unknown
Elevation
Unknown
Doppler factor
Unknown
Orbital elements
Apogee altitude
1,166.504 km
Perigee altitude
1,163.498 km
Semi-major axis
7,543.138 km
Eccentricity
0.0002
Inclination
86.4977°
RAAN
18.8604°
Arg. of periapsis
88.1061°
True anomaly
272.00729°
Mean anomaly
272.0301°
Eccentric anomaly
272.01869°
Mean motion
3.31295 °/min
Orbital period
108.66 mins
BSTAR
0.00007264
Loading maneuver chart data...
Computing Atmospheric mass density...
Loading historical data...
Loading historical data...
Loading historical data...
Loading historical data...
Loading historical data...
Loading historical data...
Loading historical data...

Documentation

Showing up to 5 results
|